THOR ABLESTAR DEB, 549

Orbit data source: Space-Track

THOR ABLESTAR DEB, 549 is space debris in LEO originally from a launch on Thu, 29 Jun 1961 UTC launched from the Air Force Eastern Test Range (AFETR). Debris objects in space refer to the collection of defunct objects orbiting the Earth. Examples of debris include non-operational satellites, rocket bodies, and fragments generated from explosions, collisions, or faulty payload assembly.

Loading next visibility...
Identifier
549, 1961-015GJ
Orbit
LEO
Country
Flag of USUS
Related business
Manufacturer
Unknown
Mission
Spacecraft
Bus & Motor
Unknown
Mass
Unknown
Launch date (UTC)
1961-06-29 (65 years ago)
Launch vehicle
Unknown
Launch site
Air Force Eastern Test Range (AFETR)
Object type
Payload
Rocket body
Debris
Shape & HBR
Unknown shape, 0.1 m
Radar Cross Section
Small (<0.1 m²)

Expand to show TLE details & history
Last TLE update: 13 hours ago

TLE from 13 hours ago
0 THOR ABLESTAR DEB
1 00549U 61015GJ  26038.69944817  .00000083  00000-0  25570-3 0  9991
2 00549  66.6932 185.2907 0209712  47.4338  54.4720 13.36426977145611
Epoch: 2026-02-07T16:47Z
TLE epoch observation values (Epoch: 2026-02-07T16:47:12.321Z)
Latitude
63.17887°
Longitude
-82.28896°
Altitude
1,043.449 km
Speed
7.38 km/s
True Right ascension
20h 29m 19s
True Declination
63° 02' 44"
Sunlit
Object was in daylight at epoch
Visualization orbit readout
Latitude
Unknown
Longitude
Unknown
Altitude
Unknown
Speed
Unknown
Apparent Right ascension
Unknown
Apparent Declination
Unknown
Sunlit
N/A
Visualization observer readout
Local Sidereal Time
07:54:05
Azimuth
Unknown
Elevation
Unknown
Doppler factor
Unknown
Orbital elements
Apogee altitude
1,278.333 km
Perigee altitude
963.798 km
Semi-major axis
7,499.202 km
Eccentricity
0.02097
Inclination
66.6932°
RAAN
185.2907°
Arg. of periapsis
47.4338°
True anomaly
56.45757°
Mean anomaly
54.472°
Eccentric anomaly
55.46178°
Mean motion
3.34211 °/min
Orbital period
107.72 mins
BSTAR
0.0002557

Documentation

Showing up to 5 results
|